SCP
-0 -0 -0 -0 0 0 0 -0 -0 0 -0 0 -0 -0 -0 -0 0 0 -0 -0 0 -0 -0 -0 -0 -0 -0 -0 -0 -0 -0 -0 -0 -0 -0 -0 -0 -0 -0 -0 -0 -0 -0 -0 -0 -0 -0 -0 0
-0 -0 0 0 0 0 0 0 0 0 -0 -0 -0 0 -0 -0 0 0 -0 0 0 -0 -0 -0 -0 -0 -0 -0 -0 -0 0 -0 0 0 -0 -0 -0 -0 -0 -0 -0 -0 -0 -0 -0 -0 -0 0 -0
-0 0 0 0 0 0 -0 0 0 0 -0 0 -0 -0 0 0 0 -0 -0 0 0 -0 -0 -0 -0 -0 0 -0 -0 -0 0 -0 -0 -0 -0 -0 -0 -0 -0 -0 -0 -0 -0 -0 -0 0 -0 0 -0
-0 0 0 0 0 0 -0 0 0 0 0 0 -0 -0 -0 0 -0 0 0 0 -0 -0 -0 -0 0 0 0 -0 -0 -0 -0 -0 -0 -0 -0 -0 -0 -0 -0 -0 -0 0 0 0 0 0 0 0 0
0 0 0 0 0 -0 -0 -0 0 -0 0 0 0 -0 -0 0 -0 -0 0 -0 -0 -0 -0 -0 0 0 0 0 0 -0 -0 -0 -0 -0 -0 -0 -0 -0 -0 0 0 0 0 0 0 0 0 -0 -0
-0 0 -0 -0 0 0 0 -0 0 0 0 0 -0 -0 -0 -0 0 0 0 -0 -0 -0 -0 -0 0 0 0 0 -0 -0 -0 -0 -0 -0 -0 -0 -0 -0 -0 -0 -0 0 0 0 0 0 0 0 -0
-0 -0 -0 0 -0 0 0 0 0 0 0 0 -0 -0 -0 0 0 0 0 -0 -0 -0 -0 0 0 0 0 -0 -0 0 0 -0 -0 -0 -0 -0 -0 -0 -0 -0 -0 0 0 0 0 0 0 0 -0
-0 -0 0 0 -0 -0 -0 0 0 0 0 0 -0 -0 0 0 0 0 -0 -0 -0 0 -0 0 0 0 0 0 0 0 0 0 -0 0 0 -0 -0 -0 0 0 0 0 0 0 0 0 0 -0 -0
-0 -0 0 0 -0 -0 -0 -0 0 0 0 0 0 -0 -0 -0 0 0 -0 -0 -0 0 0 0 0 0 0 0 0 0 0 0 0 0 0 0 0 0 0 0 0 0 -0 0 0 0 0 0 0
0 0 -0 -0 -0 -0 -0 0 -0 0 0 0 0 -0 -0 -0 -0 -0 0 -0 -0 0 0 0 0 0 0 0 0 0 0 0 0 0 0 0 0 0 0 0 0 0 0 0 0 0 0 0 0
0 0 0 -0 0 -0 -0 -0 0 0 0 0 -0 -0 -0 -0 -0 -0 -0 -0 -0 0 0 0 0 0 0 0 0 0 0 0 0 0 0 0 0 0 0 0 0 0 0 0 0 0 0 0 0
0 0 -0 0 -0 0 -0 -0 -0 0 0 0 -0 -0 -0 -0 0 -0 0 -0 -0 0 0 0 0 0 0 0 0 0 0 0 0 0 0 0 0 0 0 0 0 0 0 0 0 0 0 0 0
0 0 0 0 -0 0 -0 -0 -0 0 -0 -0 -0 -0 -0 -0 0 0 -0 -0 -0 -0 0 0 0 0 0 0 0 0 0 0 0 0 0 0 0 0 0 0 0 0 0 0 0 0 0 0 0
0 0 0 0 0 -0 -0 -0 -0 -0 -0 -0 -0 -0 0 0 0 -0 -0 -0 -0 -0 0 -0 0 0 0 0 0 0 0 0 0 0 0 0 0 0 0 0 0 0 0 0 0 0 0 0 0
0 0 0 0 0 -0 0 -0 -0 -0 -0 -0 -0 0 0 0 0 0 0 -0 -0 0 0 -0 0 -0 -0 -0 0 0 0 0 0 0 0 0 0 0 0 0 0 0 0 0 0 0 0 0 0
0 0 0 0 0 0 -0 0 -0 -0 -0 -0 0 -0 0 0 0 0 -0 0 0 0 -0 -0 0 -0 -0 -0 -0 -0 0 0 0 0 0 0 0 0 0 0 0 0 0 0 0 0 0 0 0
0 0 0 0 0 0 0 0 0 -0 -0 -0 0 0 -0 0 0 0 -0 0 0 0 -0 0 -0 -0 -0 -0 -0 0 0 0 0 0 0 0 0 0 0 0 0 0 0 0 0 0 0 0 0
0 0 0 0 0 0 0 0 0 -0 0 0 -0 -0 0 0 0 0 0 0 0 0 0 0 -0 -0 -0 -0 -0 0 0 0 0 0 0 0 0 0 0 0 0 0 0 0 0 0 0 0 0
0 0 0 0 0 0 0 0 0 0 0 0 0 -0 0 0 0 0 0 -0 0 -0 -0 -0 -0 -0 -0 0 0 -0 -0 -0 0 0 0 0 0 0 0 0 0 0 0 -0 0 0 -0 -0 0
0 0 0 0 0 0 0 0 0 0 0 0 -0 -0 0 0 0 0 0 -0 0 0 0 -0 -0 -0 0 0 0 0 0 0 0 0 0 -0 0 -0 0 0 0 0 -0 -0 -0 0 0 0 0
0 0 0 0 0 0 0 0 0 0 0 0 0 -0 -0 0 0 0 0 -0 0 0 0 0 0 -0 0 0 0 0 0 0 0 0 0 0 0 -0 0 0 0 0 0 -0 -0 -0 0 0 0
0 0 0 0 0 0 0 0 0 0 -0 -0 0 0 -0 -0 0 0 0 0 -0 0 0 0 0 0 0 0 0 0 0 0 0 0 0 0 -0 -0 -0 0 0 0 0 0 0 0 0 0 0
0 0 0 0 0 0 0 0 0 0 0 0 0 0 -0 -0 -0 -0 0 -0 0 0 0 0 0 0 0 0 0 0 0 0 0 0 -0 0 -0 -0 -0 0 -0 -0 0 0 -0 -0 0 0 0
0 0 0 0 0 0 0 0 0 0 0 0 0 0 0 -0 0 0 0 -0 0 0 0 0 0 0 0 0 0 -0 0 0 0 0 -0 -0 0 -0 -0 -0 -0 -0 0 0 0 -0 0 0 0
0 0 0 0 0 0 0 0 0 0 0 0 0 0 0 0 0 0 -0 0 0 0 -0 0 0 0 0 0 0 0 0 0 0 0 -0 -0 -0 -0 -0 -0 -0 -0 0 0 0 0 0 0 0
0 0 0 0 0 0 0 0 0 0 0 0 0 0 0 0 0 0 0 0 -0 -0 -0 0 0 0 0 0 0 0 0 0 0 0 -0 0 0 -0 -0 -0 -0 -0 -0 -0 0 0 0 0 0
0 0 0 0 0 0 0 0 0 0 0 0 0 -0 0 0 -0 0 0 0 0 0 0 0 0 0 0 0 0 0 0 0 0 0 0 -0 -0 -0 -0 -0 -0 0 -0 -0 0 0 0 0 0
0 0 0 0 0 0 0 0 0 0 0 0 0 -0 0 0 0 -0 0 0 0 0 0 0 0 0 0 0 0 0 0 0 0 0 0 0 -0 -0 -0 -0 -0 -0 0 0 -0 0 0 0 0
0 0 0 0 0 0 0 0 0 0 0 0 0 0 0 0 0 0 -0 0 0 0 0 0 0 0 0 0 0 0 0 0 0 0 0 0 0 0 0 -0 -0 -0 -0 -0 0 -0 -0 0 0
0 0 0 0 0 0 0 0 0 0 0 0 0 0 0 0 0 0 0 0 0 0 0 0 0 0 0 0 0 0 0 0 0 0 0 0 0 0 0 0 0 -0 -0 -0 -0 -0 -0 -0 0
Wind_Speed_500mb
24 23 16 5 3 2 2 5 5 8 16 6 49 18 22 13 3 3 44 58 54 50 46 40 34 32 30 27 24 21 21 19 17 17 19 17 17 15 14 16 16 15 17 18 19 24 23 22 26
25 21 8 2 4 2 2 3 8 9 18 52 21 33 8 8 5 26 62 59 52 50 44 39 34 30 28 25 22 19 18 17 17 18 18 19 19 19 16 19 17 18 20 17 20 22 22 24 27
25 12 2 3 2 4 3 5 10 10 50 25 13 14 7 6 10 60 50 63 53 48 41 35 31 28 25 22 20 16 18 17 16 18 18 19 19 21 22 21 19 19 22 20 19 22 23 23 27
12 1 1 5 14 9 10 10 7 41 24 13 21 13 10 4 43 40 69 61 52 45 38 31 28 24 22 20 18 14 16 16 16 17 18 20 20 19 19 20 21 21 22 21 22 23 22 21 24
12 1 4 7 12 11 8 14 11 20 11 13 6 11 17 21 21 67 69 57 50 44 36 31 27 24 23 20 18 15 15 15 16 16 18 20 17 19 18 20 21 22 22 22 26 24 26 27 25
1 3 4 8 9 7 14 16 11 9 11 9 22 21 11 24 48 68 63 50 44 41 37 31 28 23 21 19 18 17 16 16 16 17 17 17 19 19 20 19 18 19 26 27 26 27 27 27 27
2 4 6 10 6 5 9 20 10 13 14 4 21 12 22 30 60 60 58 50 43 38 34 31 26 22 20 19 18 17 17 16 16 16 17 20 22 24 23 24 19 25 27 29 29 26 28 28 29
3 4 6 2 1 8 11 11 16 12 5 24 24 12 24 49 64 56 54 47 39 36 32 29 25 25 22 21 19 18 17 16 17 18 20 22 22 22 24 23 20 26 30 28 26 28 28 26 27
5 3 5 12 2 8 33 15 8 12 27 9 16 25 43 60 58 52 48 40 40 35 32 30 26 26 24 23 21 20 16 18 18 22 23 23 22 24 23 21 25 28 29 29 27 26 25 24 24
5 3 5 9 7 19 25 20 22 14 18 15 29 42 60 59 57 52 51 47 40 38 34 29 29 27 26 24 22 21 20 21 23 25 27 24 23 25 25 23 28 31 27 24 23 24 21 22 19
4 4 3 10 12 32 41 30 17 28 12 19 51 66 63 60 55 51 48 49 42 40 35 31 31 29 27 26 26 27 25 26 28 27 27 25 23 23 24 28 28 27 25 21 19 18 16 18 17
7 13 14 2 16 25 31 32 21 7 9 23 51 65 64 60 54 51 47 43 44 42 37 35 34 31 28 32 32 32 30 28 28 26 26 24 23 25 29 30 31 27 22 19 14 12 11 13 12
15 12 8 13 21 13 30 22 21 14 26 43 55 54 55 53 48 41 42 41 44 44 40 37 35 34 32 36 37 37 33 30 29 27 24 24 24 25 28 26 22 20 17 13 10 9 13 17 10
5 17 20 5 20 23 24 21 21 19 38 54 52 51 51 51 49 41 43 44 44 42 42 40 37 37 37 38 34 29 29 28 26 24 23 24 24 21 20 16 12 9 7 10 9 7 12 15 10
11 12 6 17 22 12 25 21 15 42 45 54 50 46 45 44 44 49 46 45 46 42 43 42 42 41 41 39 34 29 28 24 22 19 18 18 18 18 15 11 8 10 14 8 3 3 6 10 13
6 2 3 5 17 12 9 7 17 56 52 44 47 49 47 48 51 43 42 41 43 42 44 43 45 44 44 42 32 29 24 21 16 12 13 13 14 13 13 9 10 15 13 6 3 4 9 12 14
3 10 8 7 9 13 8 10 19 38 56 50 48 52 52 51 49 47 43 42 43 41 44 45 47 46 46 46 32 29 22 19 16 13 12 8 12 12 8 12 16 17 14 5 3 7 12 13 14
15 10 8 11 16 10 15 7 19 28 32 43 46 50 52 51 52 51 48 43 41 46 48 48 48 48 46 43 36 31 25 21 18 14 11 7 8 11 9 16 18 16 11 5 5 6 10 11 10
9 11 8 5 9 7 9 8 17 28 31 35 45 51 50 53 52 49 49 48 47 52 51 51 52 51 50 47 44 36 28 22 18 15 11 8 6 6 12 19 18 14 13 9 4 6 7 9 7
9 8 5 4 8 7 3 3 12 23 27 37 46 51 54 50 50 53 52 50 56 56 55 53 52 54 50 48 43 36 28 23 21 18 13 10 11 10 7 25 16 18 15 14 8 5 4 4 4
10 11 7 5 3 6 7 8 10 13 16 25 45 46 51 52 54 59 53 60 62 62 61 55 51 53 51 50 44 39 30 26 25 23 21 13 10 13 8 15 16 15 14 15 11 5 0 5 7
20 13 8 5 4 2 4 3 5 15 23 26 37 58 51 57 57 60 62 64 62 67 62 60 53 51 52 49 46 45 38 35 31 20 20 15 12 13 15 14 15 15 16 14 12 8 4 5 1
9 8 10 5 7 6 7 5 9 8 15 22 32 42 60 58 63 63 66 64 73 71 68 66 59 54 53 50 48 45 42 36 29 23 22 18 13 14 16 19 17 20 17 19 18 13 10 8 8
19 12 8 8 6 11 9 5 17 11 15 15 29 49 55 67 65 63 64 66 68 71 73 72 70 64 58 53 50 48 46 43 35 31 25 23 20 16 16 18 19 21 17 18 16 17 18 17 13
15 18 10 12 10 10 4 7 13 18 21 24 31 36 62 61 62 61 64 64 66 69 66 72 72 72 67 59 53 46 49 49 43 34 30 28 26 22 18 20 19 21 19 17 17 14 19 20 18
28 23 11 19 16 14 4 15 13 21 30 36 45 33 23 55 56 59 61 66 74 74 69 64 62 69 71 68 57 48 48 54 52 42 35 33 29 25 17 15 17 19 17 20 19 20 19 19 23
11 16 4 11 3 15 7 5 13 33 38 54 53 45 28 18 51 57 56 62 71 77 76 71 65 62 71 71 64 55 48 52 54 49 45 39 33 29 25 21 15 14 19 17 17 21 17 16 18
3 8 12 5 18 17 8 6 7 33 37 36 45 49 43 17 26 47 55 55 63 65 66 70 71 69 66 72 71 65 56 50 50 51 48 49 41 36 33 29 24 22 20 21 18 15 17 18 19
1 6 6 4 5 12 14 9 12 16 23 28 44 47 49 37 5 23 35 43 49 60 58 64 72 72 73 77 77 73 62 56 54 52 47 50 46 43 38 34 30 27 24 23 22 19 18 17 18
14 7 3 15 11 5 2 10 10 16 24 30 38 44 47 49 42 25 5 19 35 44 47 56 58 63 67 70 81 82 74 62 58 52 51 50 53 51 43 40 37 33 30 32 30 29 28 24 18
Wind_Direction_500mb
153 145 138 111 207 191 254 118 149 140 151 157 149 156 166 133 167 85 148 158 158 150 145 144 137 133 132 125 122 118 113 109 101 97 98 104 108 109 117 120 107 107 118 115 104 95 92 96 91
152 143 130 115 238 185 6 49 114 96 129 136 130 140 130 98 84 140 148 154 157 149 146 146 141 140 136 128 118 112 113 113 110 99 96 103 109 101 100 127 119 109 118 106 111 110 106 99 94
149 144 168 244 177 155 191 65 359 86 137 137 115 115 80 87 143 143 157 152 155 150 150 150 146 143 140 135 126 123 125 125 116 106 101 100 99 107 98 105 121 117 120 123 115 109 109 106 99
149 102 308 254 235 163 155 137 84 120 122 77 120 70 69 192 139 151 152 153 152 150 151 151 150 154 153 150 143 137 127 126 116 112 106 104 98 93 99 105 104 112 114 123 115 108 107 97 100
138 141 257 260 279 101 145 147 111 141 101 70 110 98 98 133 145 152 152 155 154 150 150 151 151 153 153 153 150 140 133 127 117 110 104 104 103 93 101 103 110 114 121 125 119 117 105 101 95
130 284 276 341 52 101 103 147 130 81 102 108 105 103 98 154 155 152 154 156 156 151 150 150 151 148 146 147 144 141 136 127 120 111 108 106 103 95 92 101 114 113 126 123 117 109 109 96 84
339 284 321 313 97 82 98 124 121 126 124 167 134 101 128 147 158 154 155 158 160 155 153 156 155 148 152 150 144 142 134 126 119 113 103 110 102 100 98 95 96 119 126 121 113 107 100 96 82
275 274 290 251 224 106 126 92 117 109 158 147 147 156 160 160 160 155 157 160 162 158 158 159 161 161 156 148 146 140 132 127 122 112 112 113 106 103 95 90 112 122 128 118 108 106 104 88 78
265 280 330 29 188 107 130 111 164 125 142 148 172 148 156 153 157 154 156 160 163 164 161 159 158 157 153 148 142 136 131 127 121 120 117 115 115 108 99 101 107 114 117 115 106 108 102 83 70
233 278 352 8 109 131 116 136 158 159 135 89 117 135 148 155 158 159 162 166 169 167 165 165 163 160 155 145 149 145 141 136 127 123 118 117 115 112 107 106 110 116 114 109 102 100 91 75 69
206 239 28 34 95 148 142 156 175 155 175 181 154 146 152 157 162 165 167 171 173 172 167 165 163 162 160 153 149 139 132 131 129 124 119 120 117 115 114 112 113 117 116 108 96 93 80 67 71
268 249 273 244 147 147 151 155 144 158 84 152 155 150 156 159 168 171 170 173 175 174 169 163 164 163 159 148 145 138 129 125 126 125 121 121 118 116 112 113 112 110 111 108 99 87 65 59 61
237 273 265 238 183 141 140 165 129 119 137 142 148 151 160 164 172 176 175 176 176 174 170 168 168 162 158 148 145 139 132 126 120 116 122 123 119 120 118 114 110 113 106 111 100 81 48 50 64
290 276 301 286 195 159 156 146 132 162 150 149 157 162 167 170 172 175 180 180 176 175 171 170 169 165 162 153 152 148 141 133 124 118 117 125 127 131 132 121 116 133 120 118 103 60 50 49 74
283 287 88 52 147 158 157 155 196 159 158 160 168 168 172 176 179 180 183 185 179 178 174 172 171 169 167 161 158 154 153 148 138 131 128 135 140 149 160 153 163 141 141 128 99 4 7 50 84
240 257 184 91 159 156 194 129 137 169 164 168 172 178 180 185 189 188 190 193 185 183 180 176 175 173 170 169 163 156 156 158 157 148 151 149 161 173 186 192 165 169 169 150 97 74 63 91 91
170 159 115 129 186 161 205 112 139 172 181 169 182 187 189 193 198 197 197 201 191 187 183 180 180 175 172 172 172 169 158 162 163 148 143 155 181 177 183 197 166 157 162 141 92 105 96 96 90
161 146 111 120 178 183 191 182 157 177 179 183 192 190 193 197 202 204 203 204 195 188 188 185 182 180 175 176 174 178 173 166 164 160 155 135 187 215 196 171 177 174 174 155 104 115 106 103 115
123 131 127 88 140 220 236 248 187 177 175 187 193 192 195 198 202 204 204 203 197 192 189 188 186 184 183 182 184 186 188 191 188 185 181 177 186 188 193 193 198 211 200 178 152 117 119 116 117
157 150 150 69 57 241 298 144 184 182 188 187 185 193 197 203 200 205 203 200 199 193 193 191 190 189 191 192 190 192 193 202 209 206 194 185 205 214 256 210 204 204 213 194 180 139 130 168 119
183 199 175 101 16 100 141 138 162 185 174 179 194 193 198 203 201 207 201 203 204 202 202 198 197 194 197 199 200 200 204 205 206 211 205 195 196 192 192 179 190 196 194 198 194 211 306 207 199
211 199 201 193 286 181 308 90 166 182 194 198 189 202 199 203 204 208 205 206 208 208 211 208 204 206 207 209 211 212 209 207 208 215 207 205 199 197 200 195 200 191 191 199 200 220 218 150 207
207 158 192 175 199 227 170 233 91 161 213 228 220 207 210 207 206 206 210 211 215 215 215 218 213 212 216 215 217 219 217 219 218 213 206 213 211 215 213 211 209 201 209 226 224 231 235 235 248
147 113 93 105 174 203 148 263 56 34 348 326 240 216 213 207 209 210 210 218 217 220 222 223 221 219 220 221 222 223 221 223 222 222 221 224 223 229 222 216 218 214 220 203 226 243 233 234 238
167 178 150 179 197 184 124 181 62 33 20 356 337 254 215 209 205 207 208 210 217 217 223 228 228 227 223 224 225 226 227 229 234 237 223 227 227 234 232 225 221 212 217 229 236 239 236 241 241
193 200 195 179 187 158 179 160 112 44 26 18 21 24 212 208 209 210 210 209 218 221 226 228 230 227 228 226 229 229 231 233 239 237 233 231 238 232 229 224 221 222 229 232 238 239 239 238 233
153 201 46 105 70 186 136 128 183 16 18 16 18 18 17 221 213 213 212 208 219 225 229 233 233 234 230 229 228 231 231 233 234 237 238 234 237 226 223 226 227 233 226 230 247 241 239 239 233
358 110 175 214 168 184 116 104 28 1 4 4 8 12 3 322 219 214 212 213 218 227 230 232 234 240 241 233 233 233 235 234 233 236 241 236 236 229 228 234 235 239 231 233 242 251 250 244 241
73 126 62 104 332 182 162 128 21 22 13 4 6 10 17 31 168 202 210 216 216 225 226 229 234 240 240 238 235 234 236 238 237 238 240 234 236 231 234 233 235 231 233 230 238 244 255 255 255
47 64 8 218 182 55 333 114 29 50 41 22 21 20 27 39 49 62 127 209 211 225 225 237 237 241 246 244 239 237 237 239 239 243 242 239 234 233 237 236 241 232 227 230 237 242 249 251 259
Wind_Speed_850mb
24 23 16 5 3 2 2 5 5 8 16 6 49 18 22 13 3 3 44 58 54 50 46 40 34 32 30 27 24 21 21 19 17 17 19 17 17 15 14 16 16 15 17 18 19 24 23 22 26
25 21 8 2 4 2 2 3 8 9 18 52 21 33 8 8 5 26 62 59 52 50 44 39 34 30 28 25 22 19 18 17 17 18 18 19 19 19 16 19 17 18 20 17 20 22 22 24 27
25 12 2 3 2 4 3 5 10 10 50 25 13 14 7 6 10 60 50 63 53 48 41 35 31 28 25 22 20 16 18 17 16 18 18 19 19 21 22 21 19 19 22 20 19 22 23 23 27
12 1 1 5 14 9 10 10 7 41 24 13 21 13 10 4 43 40 69 61 52 45 38 31 28 24 22 20 18 14 16 16 16 17 18 20 20 19 19 20 21 21 22 21 22 23 22 21 24
12 1 4 7 12 11 8 14 11 20 11 13 6 11 17 21 21 67 69 57 50 44 36 31 27 24 23 20 18 15 15 15 16 16 18 20 17 19 18 20 21 22 22 22 26 24 26 27 25
1 3 4 8 9 7 14 16 11 9 11 9 22 21 11 24 48 68 63 50 44 41 37 31 28 23 21 19 18 17 16 16 16 17 17 17 19 19 20 19 18 19 26 27 26 27 27 27 27
2 4 6 10 6 5 9 20 10 13 14 4 21 12 22 30 60 60 58 50 43 38 34 31 26 22 20 19 18 17 17 16 16 16 17 20 22 24 23 24 19 25 27 29 29 26 28 28 29
3 4 6 2 1 8 11 11 16 12 5 24 24 12 24 49 64 56 54 47 39 36 32 29 25 25 22 21 19 18 17 16 17 18 20 22 22 22 24 23 20 26 30 28 26 28 28 26 27
5 3 5 12 2 8 33 15 8 12 27 9 16 25 43 60 58 52 48 40 40 35 32 30 26 26 24 23 21 20 16 18 18 22 23 23 22 24 23 21 25 28 29 29 27 26 25 24 24
5 3 5 9 7 19 25 20 22 14 18 15 29 42 60 59 57 52 51 47 40 38 34 29 29 27 26 24 22 21 20 21 23 25 27 24 23 25 25 23 28 31 27 24 23 24 21 22 19
4 4 3 10 12 32 41 30 17 28 12 19 51 66 63 60 55 51 48 49 42 40 35 31 31 29 27 26 26 27 25 26 28 27 27 25 23 23 24 28 28 27 25 21 19 18 16 18 17
7 13 14 2 16 25 31 32 21 7 9 23 51 65 64 60 54 51 47 43 44 42 37 35 34 31 28 32 32 32 30 28 28 26 26 24 23 25 29 30 31 27 22 19 14 12 11 13 12
15 12 8 13 21 13 30 22 21 14 26 43 55 54 55 53 48 41 42 41 44 44 40 37 35 34 32 36 37 37 33 30 29 27 24 24 24 25 28 26 22 20 17 13 10 9 13 17 10
5 17 20 5 20 23 24 21 21 19 38 54 52 51 51 51 49 41 43 44 44 42 42 40 37 37 37 38 34 29 29 28 26 24 23 24 24 21 20 16 12 9 7 10 9 7 12 15 10
11 12 6 17 22 12 25 21 15 42 45 54 50 46 45 44 44 49 46 45 46 42 43 42 42 41 41 39 34 29 28 24 22 19 18 18 18 18 15 11 8 10 14 8 3 3 6 10 13
6 2 3 5 17 12 9 7 17 56 52 44 47 49 47 48 51 43 42 41 43 42 44 43 45 44 44 42 32 29 24 21 16 12 13 13 14 13 13 9 10 15 13 6 3 4 9 12 14
3 10 8 7 9 13 8 10 19 38 56 50 48 52 52 51 49 47 43 42 43 41 44 45 47 46 46 46 32 29 22 19 16 13 12 8 12 12 8 12 16 17 14 5 3 7 12 13 14
15 10 8 11 16 10 15 7 19 28 32 43 46 50 52 51 52 51 48 43 41 46 48 48 48 48 46 43 36 31 25 21 18 14 11 7 8 11 9 16 18 16 11 5 5 6 10 11 10
9 11 8 5 9 7 9 8 17 28 31 35 45 51 50 53 52 49 49 48 47 52 51 51 52 51 50 47 44 36 28 22 18 15 11 8 6 6 12 19 18 14 13 9 4 6 7 9 7
9 8 5 4 8 7 3 3 12 23 27 37 46 51 54 50 50 53 52 50 56 56 55 53 52 54 50 48 43 36 28 23 21 18 13 10 11 10 7 25 16 18 15 14 8 5 4 4 4
10 11 7 5 3 6 7 8 10 13 16 25 45 46 51 52 54 59 53 60 62 62 61 55 51 53 51 50 44 39 30 26 25 23 21 13 10 13 8 15 16 15 14 15 11 5 0 5 7
20 13 8 5 4 2 4 3 5 15 23 26 37 58 51 57 57 60 62 64 62 67 62 60 53 51 52 49 46 45 38 35 31 20 20 15 12 13 15 14 15 15 16 14 12 8 4 5 1
9 8 10 5 7 6 7 5 9 8 15 22 32 42 60 58 63 63 66 64 73 71 68 66 59 54 53 50 48 45 42 36 29 23 22 18 13 14 16 19 17 20 17 19 18 13 10 8 8
19 12 8 8 6 11 9 5 17 11 15 15 29 49 55 67 65 63 64 66 68 71 73 72 70 64 58 53 50 48 46 43 35 31 25 23 20 16 16 18 19 21 17 18 16 17 18 17 13
15 18 10 12 10 10 4 7 13 18 21 24 31 36 62 61 62 61 64 64 66 69 66 72 72 72 67 59 53 46 49 49 43 34 30 28 26 22 18 20 19 21 19 17 17 14 19 20 18
28 23 11 19 16 14 4 15 13 21 30 36 45 33 23 55 56 59 61 66 74 74 69 64 62 69 71 68 57 48 48 54 52 42 35 33 29 25 17 15 17 19 17 20 19 20 19 19 23
11 16 4 11 3 15 7 5 13 33 38 54 53 45 28 18 51 57 56 62 71 77 76 71 65 62 71 71 64 55 48 52 54 49 45 39 33 29 25 21 15 14 19 17 17 21 17 16 18
3 8 12 5 18 17 8 6 7 33 37 36 45 49 43 17 26 47 55 55 63 65 66 70 71 69 66 72 71 65 56 50 50 51 48 49 41 36 33 29 24 22 20 21 18 15 17 18 19
1 6 6 4 5 12 14 9 12 16 23 28 44 47 49 37 5 23 35 43 49 60 58 64 72 72 73 77 77 73 62 56 54 52 47 50 46 43 38 34 30 27 24 23 22 19 18 17 18
14 7 3 15 11 5 2 10 10 16 24 30 38 44 47 49 42 25 5 19 35 44 47 56 58 63 67 70 81 82 74 62 58 52 51 50 53 51 43 40 37 33 30 32 30 29 28 24 18
Wind_Direction_850mb
153 145 138 111 207 191 254 118 149 140 151 157 149 156 166 133 167 85 148 158 158 150 145 144 137 133 132 125 122 118 113 109 101 97 98 104 108 109 117 120 107 107 118 115 104 95 92 96 91
152 143 130 115 238 185 6 49 114 96 129 136 130 140 130 98 84 140 148 154 157 149 146 146 141 140 136 128 118 112 113 113 110 99 96 103 109 101 100 127 119 109 118 106 111 110 106 99 94
149 144 168 244 177 155 191 65 359 86 137 137 115 115 80 87 143 143 157 152 155 150 150 150 146 143 140 135 126 123 125 125 116 106 101 100 99 107 98 105 121 117 120 123 115 109 109 106 99
149 102 308 254 235 163 155 137 84 120 122 77 120 70 69 192 139 151 152 153 152 150 151 151 150 154 153 150 143 137 127 126 116 112 106 104 98 93 99 105 104 112 114 123 115 108 107 97 100
138 141 257 260 279 101 145 147 111 141 101 70 110 98 98 133 145 152 152 155 154 150 150 151 151 153 153 153 150 140 133 127 117 110 104 104 103 93 101 103 110 114 121 125 119 117 105 101 95
130 284 276 341 52 101 103 147 130 81 102 108 105 103 98 154 155 152 154 156 156 151 150 150 151 148 146 147 144 141 136 127 120 111 108 106 103 95 92 101 114 113 126 123 117 109 109 96 84
339 284 321 313 97 82 98 124 121 126 124 167 134 101 128 147 158 154 155 158 160 155 153 156 155 148 152 150 144 142 134 126 119 113 103 110 102 100 98 95 96 119 126 121 113 107 100 96 82
275 274 290 251 224 106 126 92 117 109 158 147 147 156 160 160 160 155 157 160 162 158 158 159 161 161 156 148 146 140 132 127 122 112 112 113 106 103 95 90 112 122 128 118 108 106 104 88 78
265 280 330 29 188 107 130 111 164 125 142 148 172 148 156 153 157 154 156 160 163 164 161 159 158 157 153 148 142 136 131 127 121 120 117 115 115 108 99 101 107 114 117 115 106 108 102 83 70
233 278 352 8 109 131 116 136 158 159 135 89 117 135 148 155 158 159 162 166 169 167 165 165 163 160 155 145 149 145 141 136 127 123 118 117 115 112 107 106 110 116 114 109 102 100 91 75 69
206 239 28 34 95 148 142 156 175 155 175 181 154 146 152 157 162 165 167 171 173 172 167 165 163 162 160 153 149 139 132 131 129 124 119 120 117 115 114 112 113 117 116 108 96 93 80 67 71
268 249 273 244 147 147 151 155 144 158 84 152 155 150 156 159 168 171 170 173 175 174 169 163 164 163 159 148 145 138 129 125 126 125 121 121 118 116 112 113 112 110 111 108 99 87 65 59 61
237 273 265 238 183 141 140 165 129 119 137 142 148 151 160 164 172 176 175 176 176 174 170 168 168 162 158 148 145 139 132 126 120 116 122 123 119 120 118 114 110 113 106 111 100 81 48 50 64
290 276 301 286 195 159 156 146 132 162 150 149 157 162 167 170 172 175 180 180 176 175 171 170 169 165 162 153 152 148 141 133 124 118 117 125 127 131 132 121 116 133 120 118 103 60 50 49 74
283 287 88 52 147 158 157 155 196 159 158 160 168 168 172 176 179 180 183 185 179 178 174 172 171 169 167 161 158 154 153 148 138 131 128 135 140 149 160 153 163 141 141 128 99 4 7 50 84
240 257 184 91 159 156 194 129 137 169 164 168 172 178 180 185 189 188 190 193 185 183 180 176 175 173 170 169 163 156 156 158 157 148 151 149 161 173 186 192 165 169 169 150 97 74 63 91 91
170 159 115 129 186 161 205 112 139 172 181 169 182 187 189 193 198 197 197 201 191 187 183 180 180 175 172 172 172 169 158 162 163 148 143 155 181 177 183 197 166 157 162 141 92 105 96 96 90
161 146 111 120 178 183 191 182 157 177 179 183 192 190 193 197 202 204 203 204 195 188 188 185 182 180 175 176 174 178 173 166 164 160 155 135 187 215 196 171 177 174 174 155 104 115 106 103 115
123 131 127 88 140 220 236 248 187 177 175 187 193 192 195 198 202 204 204 203 197 192 189 188 186 184 183 182 184 186 188 191 188 185 181 177 186 188 193 193 198 211 200 178 152 117 119 116 117
157 150 150 69 57 241 298 144 184 182 188 187 185 193 197 203 200 205 203 200 199 193 193 191 190 189 191 192 190 192 193 202 209 206 194 185 205 214 256 210 204 204 213 194 180 139 130 168 119
183 199 175 101 16 100 141 138 162 185 174 179 194 193 198 203 201 207 201 203 204 202 202 198 197 194 197 199 200 200 204 205 206 211 205 195 196 192 192 179 190 196 194 198 194 211 306 207 199
211 199 201 193 286 181 308 90 166 182 194 198 189 202 199 203 204 208 205 206 208 208 211 208 204 206 207 209 211 212 209 207 208 215 207 205 199 197 200 195 200 191 191 199 200 220 218 150 207
207 158 192 175 199 227 170 233 91 161 213 228 220 207 210 207 206 206 210 211 215 215 215 218 213 212 216 215 217 219 217 219 218 213 206 213 211 215 213 211 209 201 209 226 224 231 235 235 248
147 113 93 105 174 203 148 263 56 34 348 326 240 216 213 207 209 210 210 218 217 220 222 223 221 219 220 221 222 223 221 223 222 222 221 224 223 229 222 216 218 214 220 203 226 243 233 234 238
167 178 150 179 197 184 124 181 62 33 20 356 337 254 215 209 205 207 208 210 217 217 223 228 228 227 223 224 225 226 227 229 234 237 223 227 227 234 232 225 221 212 217 229 236 239 236 241 241
193 200 195 179 187 158 179 160 112 44 26 18 21 24 212 208 209 210 210 209 218 221 226 228 230 227 228 226 229 229 231 233 239 237 233 231 238 232 229 224 221 222 229 232 238 239 239 238 233
153 201 46 105 70 186 136 128 183 16 18 16 18 18 17 221 213 213 212 208 219 225 229 233 233 234 230 229 228 231 231 233 234 237 238 234 237 226 223 226 227 233 226 230 247 241 239 239 233
358 110 175 214 168 184 116 104 28 1 4 4 8 12 3 322 219 214 212 213 218 227 230 232 234 240 241 233 233 233 235 234 233 236 241 236 236 229 228 234 235 239 231 233 242 251 250 244 241
73 126 62 104 332 182 162 128 21 22 13 4 6 10 17 31 168 202 210 216 216 225 226 229 234 240 240 238 235 234 236 238 237 238 240 234 236 231 234 233 235 231 233 230 238 244 255 255 255
47 64 8 218 182 55 333 114 29 50 41 22 21 20 27 39 49 62 127 209 211 225 225 237 237 241 246 244 239 237 237 239 239 243 242 239 234 233 237 236 241 232 227 230 237 242 249 251 259